DELTA 1 DEB, 37672

Orbit data source: Space-Track

DELTA 1 DEB, 37672 is space debris in SSO originally from a launch on Sun, 05 Mar 1978 UTC launched from the Air Force Western Test Range (AFWTR). Debris objects in space refer to the collection of defunct objects orbiting the Earth. Examples of debris include non-operational satellites, rocket bodies, and fragments generated from explosions, collisions, or faulty payload assembly.

Loading next visibility...
Identifier
37672, 1978-026KK
Orbit
SSO
Country
Flag of USUS
Related business
Manufacturer
Unknown
Mission
Spacecraft
Bus & Motor
Unknown
Mass
Unknown
Launch date (UTC)
1978-03-05 (48 years ago)
Launch vehicle
Unknown
Launch site
Air Force Western Test Range (AFWTR)
Object type
Payload
Rocket body
Debris
Shape & HBR
Unknown shape, 0.1 m
Radar Cross Section
Small (<0.1 m²)

Expand to show TLE details & history
Last TLE update: 4 days ago

TLE from 4 days ago
0 DELTA 1 DEB
1 37672U 78026KK  26169.81950266  .00000192  00000-0  12680-3 0  9991
2 37672  99.0313 201.6315 0021772 298.6892  61.2091 14.13250316237729
Epoch: 2026-06-18T19:40Z
TLE epoch observation values (Epoch: 2026-06-18T19:40:05.029Z)
Latitude
-0.00005°
Longitude
-0.4468°
Altitude
843.613 km
Speed
7.435 km/s
True Right ascension
13h 26m 31s
True Declination
0° 00' 00"
Sunlit
Object was in daylight at epoch
Visualization orbit readout
Latitude
Unknown
Longitude
Unknown
Altitude
Unknown
Speed
Unknown
Apparent Right ascension
Unknown
Apparent Declination
Unknown
Sunlit
N/A
Visualization observer readout
Local Sidereal Time
03:57:37
Azimuth
Unknown
Elevation
Unknown
Doppler factor
Unknown
Orbital elements
Apogee altitude
861.181 km
Perigee altitude
829.727 km
Semi-major axis
7,223.591 km
Eccentricity
0.00218
Inclination
99.0313°
RAAN
201.6315°
Arg. of periapsis
298.6892°
True anomaly
61.42803°
Mean anomaly
61.2091°
Eccentric anomaly
61.31854°
Mean motion
3.5352 °/min
Orbital period
101.83 mins
BSTAR
0.0001268
Loading maneuver chart data...
Computing Atmospheric mass density...

Documentation

Showing up to 5 results
|